Temp
23 25 26 26 25 24 24 24 25 26 25 23 25 26 27 28 27 26 27 28 28 27 27 26 23 21 20 19 19 19 19 18 17 16 16 16 15 15 15 14 14 14 14 14
24 25 24 22 22 23 23 24 26 26 23 22 26 25 27 27 27 27 27 28 29 29 28 27 24 22 20 20 19 18 18 17 17 17 16 16 17 16 16 15 15 14 14 14
24 24 21 22 23 23 24 24 25 24 24 24 23 29 29 27 25 24 25 26 27 28 28 27 25 23 21 21 20 19 18 18 17 16 16 16 15 14 14 15 15 15 14 14
23 22 22 22 23 24 24 23 22 22 23 25 23 28 30 28 29 29 28 27 26 26 26 28 26 24 22 21 21 19 19 18 17 16 17 15 16 17 17 17 16 16 15 15
24 23 22 23 24 23 24 21 22 21 23 22 24 24 31 29 28 27 27 26 25 25 25 26 26 24 23 22 21 19 19 18 18 17 16 16 17 18 18 17 16 16 15 15
23 21 22 23 21 21 21 22 22 20 22 25 23 23 29 27 25 25 26 26 25 25 25 23 24 24 23 21 20 19 19 18 17 16 16 16 16 17 17 16 16 16 16 15
23 22 21 21 22 21 22 23 25 26 26 26 21 23 26 26 24 24 24 25 26 26 25 23 22 22 22 21 19 18 18 18 17 16 16 16 16 16 17 17 17 17 16 16
23 24 22 21 22 23 22 23 25 24 26 25 20 25 26 25 24 23 25 26 25 25 26 24 21 21 21 20 18 18 18 18 18 17 16 16 16 16 16 17 18 17 18 17
23 23 20 20 20 21 21 22 21 23 20 22 25 25 26 25 25 24 25 25 25 25 25 25 24 20 20 20 20 19 18 18 19 17 16 16 16 16 17 17 17 17 17 18
22 22 20 20 20 19 21 21 22 23 23 24 26 25 28 26 27 26 26 25 25 24 25 25 25 23 21 21 20 19 19 19 19 18 17 17 17 17 17 17 17 16 16 16
21 21 21 20 21 23 20 22 21 21 22 24 25 28 28 27 25 25 25 25 25 25 25 25 25 24 22 21 20 19 19 19 19 18 17 17 18 17 17 17 17 16 16 16
19 21 22 23 19 19 20 22 23 23 22 21 21 24 25 25 24 25 26 26 25 25 25 25 24 24 24 23 21 20 19 19 19 19 18 18 18 18 17 17 17 17 17 16
18 20 21 23 20 19 20 20 20 19 20 22 22 25 25 25 27 26 25 24 24 24 24 24 24 24 24 23 23 22 20 20 19 19 18 18 18 18 17 18 18 17 17 17
16 19 19 21 19 18 19 19 19 20 21 22 22 24 25 25 24 24 23 23 23 22 21 21 21 22 22 22 22 22 21 20 19 19 19 18 18 17 17 18 18 18 17 17
15 16 17 17 17 17 18 18 18 18 20 20 22 22 23 23 21 21 21 19 19 19 19 19 19 20 20 20 20 21 21 20 19 18 18 18 18 17 17 17 18 18 17 17
14 16 16 16 18 18 17 18 18 18 18 19 20 20 17 18 18 18 18 18 18 18 18 18 19 19 19 19 19 19 20 20 20 19 18 19 18 18 17 17 17 17 17 17
13 14 16 16 18 17 17 20 20 20 20 20 19 16 15 15 16 17 17 17 16 17 17 17 18 18 17 17 17 18 18 19 19 19 19 19 18 18 17 17 16 17 16 17
13 14 14 14 16 15 19 19 18 17 15 15 14 14 14 14 15 17 17 16 16 16 16 17 17 17 16 17 17 17 17 18 18 18 19 19 19 18 17 17 17 17 17 17
12 12 12 13 15 17 18 19 18 18 14 13 13 14 14 14 15 18 18 17 16 16 16 16 16 16 16 17 17 16 17 18 18 18 18 19 19 18 18 17 16 17 17 16
12 12 12 13 11 14 16 15 14 16 15 13 13 13 14 14 14 15 16 16 15 15 15 15 16 16 16 16 16 16 17 18 19 18 17 17 17 17 17 17 16 16 16 16
12 11 10 10 11 14 13 12 15 14 13 13 13 13 13 13 14 15 15 15 15 14 14 14 15 16 16 16 16 16 17 18 17 16 16 16 16 16 16 16 16 16 16 16
11 11 11 12 11 12 13 13 11 12 13 13 13 13 13 13 13 14 14 14 14 14 14 14 14 14 15 15 16 16 16 16 16 15 15 16 16 15 15 15 15 15 15 15
9 11 11 11 12 14 13 13 14 14 13 13 13 13 13 13 13 13 14 14 14 14 14 13 13 13 14 14 15 15 15 15 15 15 16 16 16 15 15 15 14 14 14 14
10 11 9 9 11 12 13 13 13 13 12 13 13 13 13 12 12 12 13 13 13 13 13 13 13 13 13 13 14 14 14 14 14 15 16 17 16 16 15 14 14 14 14 14
9 10 9 9 10 11 12 12 12 13 12 12 12 12 12 12 11 12 12 12 12 12 13 13 13 13 13 13 13 13 13 13 13 14 15 16 17 16 15 15 14 14 14 14
9 9 9 9 11 11 11 11 11 11 11 11 11 11 11 11 11 12 12 12 12 12 12 12 12 12 12 12 12 12 13 13 13 13 13 15 16 16 15 15 14 14 15 14
Height
810 809 805 802 804 806 807 808 805 793 792 800 785 774 760 756 757 760 758 756 757 761 764 770 776 783 788 792 797 801 805 810 814 818 821 824 825 827 829 830 832 834 835 836
811 807 804 808 810 811 809 807 798 791 797 800 778 770 753 747 747 747 751 749 749 753 756 762 769 775 780 785 790 794 799 804 808 812 815 819 821 823 825 826 827 829 830 832
810 807 810 810 808 810 804 806 801 806 797 787 789 751 749 750 750 753 752 749 747 746 749 753 760 766 773 776 781 787 792 798 802 806 811 815 818 819 820 821 822 823 826 828
809 809 811 809 808 805 808 805 808 807 803 796 794 776 749 751 744 743 743 745 746 747 748 748 753 758 763 768 776 780 785 790 795 800 804 807 809 811 813 815 817 819 820 822
804 808 810 809 803 804 802 807 807 808 805 807 795 795 750 749 752 753 748 747 746 747 748 747 748 753 758 764 768 774 778 783 787 791 795 799 803 805 808 811 812 814 815 817
805 808 807 801 806 807 808 807 807 810 805 800 799 800 766 769 773 765 755 750 749 747 746 746 746 748 751 757 762 765 770 774 779 783 787 790 794 798 802 804 807 809 811 812
804 807 806 807 807 806 806 804 800 795 794 792 805 800 780 774 772 769 764 757 753 749 746 743 743 745 747 749 753 759 762 765 770 775 779 782 786 790 793 797 799 803 805 805
808 803 807 807 804 803 806 805 802 813 799 795 810 792 783 774 769 768 761 757 756 751 745 744 744 743 744 747 749 751 754 759 763 766 770 775 778 782 785 788 791 794 797 799
809 807 808 810 808 809 810 810 810 810 820 811 787 780 772 771 766 766 761 757 755 752 749 744 742 742 742 742 745 748 750 752 755 757 762 766 770 774 776 780 784 786 790 792
808 811 810 810 809 811 808 807 810 807 814 806 782 785 765 769 761 758 757 757 757 754 748 746 741 740 739 740 741 743 746 748 750 753 755 757 761 765 769 773 775 778 781 784
812 812 809 810 806 799 812 808 811 809 807 801 797 768 752 757 764 766 762 759 756 753 749 745 743 740 739 737 737 738 740 742 745 747 749 751 754 757 761 765 767 770 774 777
816 811 808 799 806 807 805 800 799 804 809 810 810 785 759 759 764 761 758 757 756 754 750 747 744 740 737 735 735 733 733 735 737 740 743 745 748 751 753 755 759 762 765 769
823 812 808 794 809 811 807 807 807 811 809 803 805 779 760 761 754 758 760 756 754 754 752 749 746 741 737 733 731 730 729 726 728 731 735 738 740 743 744 747 751 754 757 760
828 819 814 806 817 820 813 811 811 807 806 795 788 780 767 764 761 760 764 762 761 762 758 754 749 744 739 734 729 726 725 724 723 723 724 728 730 732 734 737 741 744 747 751
832 826 823 819 819 818 815 814 810 812 800 800 785 784 777 774 778 777 771 773 770 767 762 758 753 748 742 735 730 725 722 720 719 718 717 716 718 723 726 729 731 735 739 741
838 827 824 819 811 811 808 804 804 803 801 793 790 784 795 792 787 783 781 780 776 771 767 761 755 749 743 738 732 726 720 717 716 714 712 711 712 712 714 717 720 723 726 730
845 833 822 810 808 809 800 781 776 778 779 782 786 799 803 798 794 790 786 782 780 775 770 764 758 753 747 741 734 726 720 714 710 708 707 706 706 706 706 706 709 711 714 718
838 836 833 820 818 815 777 776 780 785 800 802 805 807 805 801 795 787 783 782 779 775 770 764 759 752 747 740 734 727 720 713 708 703 701 700 699 697 698 700 702 705 708 708
837 839 834 824 808 786 780 776 781 784 805 811 810 806 802 799 791 775 778 780 779 774 770 765 761 755 747 741 734 727 719 712 707 702 697 694 694 694 694 691 690 691 696 699
830 835 834 824 829 804 784 789 795 789 794 811 811 807 802 797 792 781 777 778 776 772 769 761 756 751 746 739 734 726 718 712 706 701 696 692 688 687 685 685 685 684 685 687
828 834 836 834 828 798 798 799 788 795 802 805 806 802 798 796 791 782 778 775 773 769 763 760 753 746 741 736 731 724 718 712 707 700 695 689 685 681 679 678 678 679 680 679
835 834 828 818 817 807 802 804 817 812 803 804 800 797 791 788 786 781 776 771 767 763 759 756 750 742 735 733 728 720 715 710 705 698 691 686 681 677 675 672 672 673 673 673
843 831 827 824 807 796 800 802 804 804 800 794 794 791 785 782 779 776 772 766 760 756 752 750 745 740 733 726 725 719 710 708 702 696 689 683 679 674 670 668 667 667 668 668
834 834 831 833 817 809 805 801 801 802 798 796 792 785 783 777 772 768 765 761 758 750 743 739 735 732 728 722 717 715 709 705 702 694 686 681 676 672 668 663 661 661 660 659
831 830 827 820 809 807 801 798 795 793 791 788 786 783 778 774 767 764 757 753 750 746 741 734 729 724 720 718 710 706 704 702 697 691 684 678 673 669 665 661 656 653 650 650
810 821 821 808 803 801 797 794 792 788 785 780 776 772 768 765 758 755 748 745 740 736 734 729 721 716 712 710 705 699 695 696 692 686 680 675 670 665 661 657 652 645 642 641
Wind_Speed
1 6 6 4 3 4 5 6 9 11 5 6 14 21 24 18 17 18 18 16 16 16 16 22 25 25 24 24 24 25 25 25 25 24 22 20 20 18 18 18 17 16 15 14
5 7 1 0 2 4 5 9 11 9 2 7 15 25 23 12 14 17 17 17 19 17 18 19 24 26 28 27 27 27 27 26 27 24 22 18 19 19 18 17 17 18 17 16
8 2 2 2 3 6 7 9 11 10 12 7 13 8 7 4 3 2 9 13 14 16 17 17 22 27 27 30 31 29 28 27 28 25 21 18 13 12 14 17 17 18 19 19
6 1 4 5 7 7 9 0 4 8 10 6 8 5 7 10 10 14 12 7 7 13 14 15 18 25 31 31 28 29 29 29 28 27 25 24 22 21 19 18 16 17 20 20
1 2 4 5 3 5 2 1 4 4 8 9 2 4 5 7 13 20 17 14 9 5 8 14 16 22 26 26 29 29 29 28 28 29 29 27 26 22 18 16 15 15 15 20
14 1 4 4 2 1 1 4 4 2 2 4 3 3 8 9 13 15 18 19 15 9 7 7 16 19 23 25 26 28 30 30 29 29 31 30 28 25 20 19 17 17 16 16
2 3 1 2 6 3 4 7 3 3 2 3 2 4 7 8 10 11 14 16 18 18 15 10 7 15 20 24 26 26 28 30 30 30 31 32 31 28 26 23 21 20 19 19
3 3 1 1 4 3 1 3 4 4 3 4 3 3 5 3 3 6 11 15 14 19 19 16 8 10 17 20 23 27 28 29 30 31 31 31 31 30 29 27 25 24 23 21
3 2 2 1 1 3 4 4 2 1 0 4 1 3 2 6 7 1 11 18 19 20 20 18 14 5 12 16 20 23 26 28 30 32 31 31 30 30 30 28 26 26 24 21
1 5 1 2 2 3 4 4 2 3 2 3 2 4 6 9 4 6 17 21 19 21 22 18 15 12 6 12 16 19 22 26 27 28 30 31 32 32 30 27 28 27 25 24
2 3 3 2 7 3 4 4 2 2 3 3 4 1 4 6 2 11 16 18 20 21 21 19 15 18 11 8 12 17 21 24 24 26 28 29 30 31 30 29 28 28 25 25
3 3 6 5 4 2 2 3 6 4 3 1 3 6 4 3 3 13 19 21 22 20 19 18 17 20 17 12 11 16 19 22 25 25 26 29 28 28 30 31 29 27 28 27
6 3 5 5 3 2 4 2 2 0 2 11 7 4 2 4 17 19 23 26 23 21 20 20 18 18 21 19 15 13 17 23 23 23 25 27 28 29 30 31 30 28 28 28
1 3 7 10 5 7 6 3 3 6 6 10 15 19 19 22 23 26 24 21 21 20 20 19 19 18 25 25 21 16 16 18 21 23 26 27 30 32 34 32 30 30 30 30
5 5 5 9 11 11 14 14 13 14 16 15 18 20 20 21 18 16 18 17 17 19 20 20 20 19 26 27 26 20 17 16 18 22 25 29 31 31 30 30 31 30 30 31
6 5 10 16 15 15 19 18 18 19 20 22 23 24 13 12 13 16 14 16 18 19 20 21 21 22 27 29 27 26 21 17 14 20 24 26 26 29 32 32 32 32 32 32
6 5 8 18 9 14 21 15 22 22 19 14 16 7 11 13 16 13 13 17 19 20 21 22 21 23 29 31 30 27 26 21 15 17 22 24 24 27 29 33 33 33 35 34
12 11 8 11 12 16 5 5 6 6 9 8 7 8 12 14 18 14 10 19 20 21 22 21 24 30 32 32 32 31 26 22 16 16 19 21 24 27 27 28 29 30 30 33
17 11 7 6 10 20 23 16 13 7 6 8 10 12 15 18 18 7 10 20 19 20 22 24 28 30 31 30 32 32 28 24 20 18 17 18 19 23 25 27 29 31 30 29
8 13 10 8 5 7 9 8 13 10 6 12 13 16 19 21 15 14 23 22 21 27 26 30 31 30 29 31 31 29 29 27 25 23 21 19 18 21 24 25 27 27 29 30
4 4 10 10 9 12 10 17 9 8 7 24 18 20 22 18 15 22 21 22 27 28 31 31 32 30 29 30 31 29 28 27 29 27 23 21 19 19 21 22 23 23 25 25
7 6 5 7 10 14 10 9 11 16 21 18 21 22 22 19 20 21 23 23 24 26 28 30 29 32 35 29 27 30 28 31 31 29 25 23 19 17 16 18 19 20 21 23
8 8 9 10 10 23 28 25 23 21 22 25 22 20 20 22 24 24 22 24 23 31 29 30 28 29 34 35 27 28 31 31 33 31 28 24 21 16 13 15 16 17 18 20
17 15 14 16 20 25 25 26 26 24 23 21 21 24 25 26 26 25 23 21 19 30 31 32 30 28 29 35 34 28 31 31 32 32 30 26 22 19 15 11 12 15 17 18
14 15 19 20 25 24 25 23 23 23 25 26 25 25 26 25 26 25 22 23 26 28 31 34 30 28 28 32 37 35 29 29 31 31 31 28 21 19 18 15 14 15 18 20
20 20 14 16 24 22 25 26 29 27 27 27 27 27 27 26 24 25 21 27 28 29 31 30 35 34 31 30 34 38 34 28 29 29 28 28 26 22 18 17 18 19 22 24
Wind_Direction
48 263 258 321 277 318 291 274 278 287 313 281 272 277 280 276 254 246 244 237 223 220 223 217 211 209 208 207 206 207 205 206 204 206 208 214 219 222 226 227 227 226 226 226
225 257 324 293 219 259 263 286 293 296 247 286 300 290 293 298 259 242 244 236 232 230 227 215 209 207 207 207 207 207 206 205 205 207 208 211 219 226 226 227 227 225 225 224
265 50 113 258 252 253 258 275 306 301 318 262 311 278 356 41 354 272 254 254 252 233 223 210 205 206 206 209 208 207 206 205 205 205 206 211 212 219 215 221 223 223 224 225
267 61 246 244 256 234 278 32 276 301 323 322 5 309 46 20 62 37 28 24 269 244 240 232 209 207 207 211 209 208 206 205 206 205 206 209 212 217 223 222 224 223 226 225
51 226 229 257 279 197 342 284 283 287 290 307 127 265 49 27 11 5 5 5 1 355 259 235 226 216 214 208 208 209 207 206 206 205 207 211 218 223 221 219 218 218 223 223
266 342 264 287 104 238 97 262 247 247 238 236 38 319 69 21 353 27 44 43 40 19 341 268 237 219 213 208 207 205 205 208 206 205 209 211 215 216 216 219 219 220 220 220
245 208 245 250 247 186 233 281 279 229 209 17 56 290 32 45 63 52 40 41 41 31 20 352 250 218 212 204 204 206 206 208 206 207 211 213 216 217 218 218 218 217 218 218
305 188 195 106 261 340 172 290 304 296 327 325 121 240 111 166 128 59 46 40 26 20 16 14 347 241 222 214 209 204 205 210 209 208 213 215 217 219 221 222 221 220 221 222
274 221 114 7 325 294 133 212 13 277 63 264 304 182 158 217 226 209 31 15 15 11 6 6 9 304 229 220 220 217 214 213 211 210 211 215 216 218 221 222 221 222 222 220
11 281 78 95 187 85 287 123 202 189 271 272 207 259 150 207 224 342 5 3 1 359 357 355 353 354 267 236 225 221 223 223 219 216 214 215 216 219 222 221 221 220 221 220
277 261 132 214 201 198 159 209 211 304 268 287 304 177 162 185 4 352 352 359 355 350 349 350 347 347 329 268 231 229 225 224 225 222 220 220 219 218 220 221 222 221 221 221
359 298 263 263 108 8 277 268 241 254 175 241 310 269 160 194 37 340 345 345 348 347 346 353 351 348 345 323 272 238 224 225 225 224 224 224 223 220 219 221 222 220 220 221
346 223 282 193 151 142 246 194 237 23 287 243 258 242 81 261 310 336 340 343 343 349 353 349 351 351 348 341 317 275 247 230 225 221 224 225 223 222 223 223 222 220 220 220
214 280 280 284 8 337 286 264 265 251 254 261 241 271 292 308 319 331 340 336 351 351 352 353 349 347 345 340 331 306 277 255 239 223 221 224 225 222 221 222 221 220 219 219
13 272 302 297 299 295 287 282 276 251 260 262 278 282 294 311 340 339 345 7 2 359 357 356 351 346 345 344 340 326 305 278 253 236 226 222 225 225 225 224 222 222 221 222
341 280 305 281 287 288 282 274 268 262 265 265 271 275 4 3 358 0 16 8 2 355 351 349 349 350 349 344 336 330 315 302 276 249 242 240 232 222 221 222 221 220 219 221
283 286 296 277 274 300 287 263 249 248 246 284 274 10 4 359 352 346 8 7 358 350 345 344 342 341 341 342 339 330 323 308 283 264 256 248 240 235 227 223 221 218 218 221
252 256 265 280 291 264 306 29 47 74 76 62 64 22 7 349 328 303 4 356 347 343 340 338 337 335 336 337 341 336 328 320 297 275 266 258 247 238 234 233 231 229 227 222
231 249 265 257 250 282 295 288 276 247 94 43 11 353 345 347 325 323 332 345 334 331 329 328 328 326 326 330 336 336 336 331 320 301 282 270 262 255 248 236 226 224 226 227
204 219 238 263 263 264 95 358 350 312 193 11 336 325 328 329 320 310 318 325 323 322 320 321 323 323 324 328 331 334 338 339 337 327 310 292 271 259 253 246 238 230 224 225
164 197 235 239 254 266 2 355 324 257 354 331 324 313 312 309 303 309 309 309 313 312 314 317 314 316 319 323 325 326 328 335 335 324 314 305 288 268 257 255 244 239 234 228
280 267 250 255 245 263 59 358 6 312 308 308 309 308 303 301 303 304 303 309 310 309 309 312 311 311 314 318 319 317 320 325 327 328 318 311 301 286 270 256 249 242 235 232
262 243 280 272 285 312 311 304 304 303 305 311 308 304 303 299 304 303 302 305 306 307 305 305 302 303 305 309 310 310 311 321 322 323 322 316 309 297 278 261 254 244 238 238
268 270 266 277 267 270 281 294 298 297 296 296 294 301 304 298 300 302 302 299 296 297 301 301 297 293 295 299 302 302 308 314 315 314 317 316 308 301 290 265 246 243 237 233
267 276 265 272 275 279 278 283 292 297 298 296 294 293 294 294 292 293 290 289 289 287 290 293 293 290 287 289 295 300 306 310 309 309 309 309 305 300 293 279 257 243 242 235
255 261 260 269 281 289 292 291 295 295 293 291 293 293 290 286 286 286 284 283 285 285 286 282 287 288 288 286 288 296 300 302 303 303 303 303 304 299 291 286 284 274 265 254